NOAA 16 DEB, 42374

Orbit data source: Space-Track

NOAA 16 DEB, 42374 is space debris in SSO originally from a launch on Thu, 21 Sep 2000 UTC launched from the Air Force Western Test Range (AFWTR). Debris objects in space refer to the collection of defunct objects orbiting the Earth. Examples of debris include non-operational satellites, rocket bodies, and fragments generated from explosions, collisions, or faulty payload assembly.

Loading next visibility...
Identifier
42374, 2000-055RS
Orbit
SSO
Country
Flag of USUS
Related business
Manufacturer
Unknown
Mission
Spacecraft
Bus & Motor
Unknown
Mass
Unknown
Launch date (UTC)
2000-09-21 (25 years ago)
Launch vehicle
Unknown
Launch site
Air Force Western Test Range (AFWTR)
Object type
Payload
Rocket body
Debris
Shape & HBR
Unknown
Radar Cross Section
Small (<0.1 m²)

Expand to show TLE details & history
Last TLE update: 2 days ago

TLE from 2 days ago
0 NOAA 16 DEB
1 42374U 00055RS  25256.30576422  .00015448  00000-0  33687-2 0  9990
2 42374  98.8604  20.5250 0013139 180.3925 179.7264 14.57918787488098
Epoch: 2025-09-13T07:20Z
TLE epoch observation values (Epoch: 2025-09-13T07:20:18.028Z)
Latitude
-0.00001°
Longitude
-82.09114°
Altitude
712.165 km
Speed
7.495 km/s
True Right ascension
01h 22m 06s
True Declination
0° 00' 00"
Sunlit
Object was in full shadow at epoch
Visualization orbit readout
Latitude
Unknown
Longitude
Unknown
Altitude
Unknown
Speed
Unknown
Apparent Right ascension
Unknown
Apparent Declination
Unknown
Sunlit
N/A
Visualization observer readout
Local Sidereal Time
19:57:29
Azimuth
Unknown
Elevation
Unknown
Doppler factor
Unknown
Orbital elements
Apogee altitude
706.314 km
Perigee altitude
687.721 km
Semi-major axis
7,075.155 km
Eccentricity
0.00131
Inclination
98.8604°
RAAN
20.525°
Arg. of periapsis
180.3925°
True anomaly
179.72712°
Mean anomaly
179.7264°
Eccentric anomaly
179.72676°
Mean motion
3.64703 °/min
Orbital period
98.71 mins
BSTAR
0.0033687
Loading maneuver chart data...
Computing Atmospheric mass density...
Loading historical data...
Loading historical data...
Loading historical data...
Loading historical data...
Loading historical data...
Loading historical data...
Loading historical data...

Documentation

Showing up to 5 results
|